Torna al catalogo

SL-14 DEB

AttivoPO
NORAD 39976·DEBRIS·🇷🇺 Russia

Lanciato Aug 18, 1987 da Plesetsk Cosmodrome

Loading…

Prossimi Passaggi (prossime 24 ore)

TLE

In scadenzaSource: Space-Track

Epoca: Sep 9, 2026, 06:28 UTC

1 39976U 87068DC  26252.26990587  .00000792  00000-0  48931-3 0  9992
2 39976  82.5437  89.3969 0010396  95.3732 264.8626 14.04232316143993

Traccia SL-14 DEB in tempo reale con AllMySat

Download on the App Store